Regional Weather Roundup
Issued by NWS

Home | Current Version | Previous Version | Graphics & Text | Print | Product List | Glossary On
Versions: 1 2 3 4 5 6 7 8 9 10 11 12 13 14 15 16 17 18 19 20 21 22 23 24 25 26 27 28 29 30 31 32 33 34 35 36 37 38 39 40 41 42 43 44 45 46 47 48 49 50
000
ASUS43 KLMK 201510
RWRKY
NATIONAL WEATHER SERVICE LOUISVILLE KY
1000 AM EST MON NOV 20 2017

NOTE "FAIR" INDICATES FEW OR NO CLOUDS BELOW 12,000 FEET
WITH NO SIGNIFICANT WEATHER AND/OR OBSTRUCTIONS TO VISIBILITY.

KYZ001>023-026-027-061>063-070>075-201600-
WESTERN AND SOUTH CENTRAL KENTUCKY

CITY           SKY/WX    TMP DP  RH WIND       PRES   REMARKS
PADUCAH        CLOUDY    39  25  57 S6        30.23F WCI  35
HENDERSON      SUNNY     37  26  64 S13       30.25S WCI  29
OWENSBORO      SUNNY     37  27  67 S8        30.26S WCI  31
HOPKINSVILLE   SUNNY     37  24  59 S6        30.26S WCI  32
BOWLING GREEN  SUNNY     37  29  72 S6        30.29S WCI  32
GLASGOW        SUNNY     36  28  75 S5        30.28S WCI  32
$$

KYZ024-025-028>034-038-045-046-053-201600-
NORTH CENTRAL KENTUCKY

CITY           SKY/WX    TMP DP  RH WIND       PRES   REMARKS
LOUISVILLE/SDF MOSUNNY   37  24  59 S9        30.25F WCI  30
LOUISVILLE/LOU SUNNY     35  26  69 S9        30.26S WCI  28
FORT KNOX      SUNNY     36  25  64 S8        30.24R WCI  30
$$

KYZ035>037-039>044-047>052-055>060-089>105-201600-
NORTHEAST KENTUCKY

CITY           SKY/WX    TMP DP  RH WIND       PRES   REMARKS
LEXINGTON      SUNNY     36  24  62 S8        30.26R WCI  30
COVINGTON      PTSUNNY   33  27  78 S8        30.22S WCI  26
FRANKFORT      SUNNY     35  24  64 SW7       30.25S WCI  29
$$

KYZ054-064>069-076>088-106>120-201600-
SOUTHEAST KENTUCKY

CITY           SKY/WX    TMP DP  RH WIND       PRES   REMARKS
JACKSON        SUNNY     34  27  75 S5        30.26R WCI  30
LONDON         SUNNY     33  27  78 S3        30.27S
SOMERSET       SUNNY     32  32 100 S6        30.31R WCI  26
MIDDLESBORO    SUNNY     32  29  86 CALM      30.30S
MONTICELLO     SUNNY     36  28  73 VRB7      30.31R WCI  30
$$




USA.gov is the U.S. government's official web portal to all federal, state and local government web resources and services.